Weather History for EINN - March, 2013

Change the Weather History Date:

Monday, March 25, 2013

  Actual Average Record
Temperature  
Mean Temperature 38 °F -  
Max Temperature 40 °F 54 °F 66 °F (2012)
Min Temperature 35 °F 40 °F 30 °F (2015)
Degree Days  
Heating Degree Days 28    
Moisture  
Dew Point 26 °F    
Average Humidity 63    
Maximum Humidity 81    
Minimum Humidity 40    
Precipitation  
Precipitation 0.00 in 0.08 in - ()
Sea Level Pressure  
Sea Level Pressure 30.01 in    
Wind  
Wind Speed 12 mph ()    
Max Wind Speed 18 mph    
Max Gust Speed -    
Visibility 6.5 miles    
Events      
Averages and records for this station are not official NWS values.
T = Trace of Precipitation, MM = Missing Value Source: Averaged Metar Reports

Daily Weather History Graph

Daily Weather History Graph

Search for Another Location

Airport or City:

Trip Planner

Search our weather history database for the weather conditions in past years. The results will help you decide how hot, cold, wet, or windy it might be!

Date:

Astronomy

Mar. 25, 2013 Rise Set
Actual Time 6:26 AM GMT 6:58 PM GMT
Civil Twilight 5:51 AM GMT 7:32 PM GMT
Nautical Twilight 5:10 AM GMT 8:13 PM GMT
Astronomical Twilight 4:27 AM GMT 8:57 PM GMT
Moon 5:06 PM GMT (3/25) 5:15 AM GMT (3/25)
Length of Visible Light 13h 40m
Length of Day
12h 31m
Waxing Gibbous, 96% of the Moon is Illuminated
Mar 25
Waxing Gibbous
Mar 27
Full
Apr 3
Last Quarter
Apr 10
New
Apr 18
First Quarter

Hourly Weather History & Observations

Time (GMT) Temp. Windchill Dew Point Humidity Pressure Visibility Wind Dir Wind Speed Gust Speed Precip Events Conditions
12:00 AM 36 °F - 29 °F 67% 29.99 in 9 mi East 13.4 mph - -   Overcast
12:00 AM 35.6 °F 27.1 °F 28.4 °F 75% 29.98 in 6.2 mi East 12.7 mph - N/A   Overcast
12:30 AM 35.6 °F 26.2 °F 28.4 °F 75% 29.98 in 6.2 mi East 15.0 mph - N/A   Overcast
1:00 AM 35.6 °F 26.2 °F 30.2 °F 81% 29.98 in 6.2 mi East 15.0 mph - N/A   Overcast
1:30 AM 35.6 °F 26.6 °F 30.2 °F 81% 29.98 in 6.2 mi East 13.8 mph - N/A   Overcast
2:00 AM 35.6 °F 27.1 °F 30.2 °F 81% 29.98 in 6.2 mi East 12.7 mph - N/A   Overcast
2:30 AM 35.6 °F 26.2 °F 28.4 °F 75% 29.98 in 6.2 mi East 15.0 mph - N/A   Overcast
3:00 AM 35.6 °F 27.1 °F 28.4 °F 75% 29.98 in 6.2 mi East 12.7 mph - N/A   Overcast
3:30 AM 35.6 °F 26.6 °F 28.4 °F 75% 29.98 in 6.2 mi East 13.8 mph - N/A   Overcast
4:00 AM 35.6 °F 26.6 °F 28.4 °F 75% 29.98 in 6.2 mi East 13.8 mph - N/A   Overcast
4:30 AM 35.6 °F 27.5 °F 26.6 °F 70% 30.01 in 6.2 mi East 11.5 mph - N/A   Overcast
5:00 AM 35.6 °F 27.5 °F 26.6 °F 70% 30.01 in 6.2 mi ENE 11.5 mph - N/A   Overcast
5:30 AM 35.6 °F 28.0 °F 26.6 °F 70% 30.01 in 6.2 mi ENE 10.4 mph - N/A   Overcast
6:00 AM 35 °F - 26 °F 59% 30.02 in 11 mi ENE 13.4 mph - -   Mostly Cloudy
6:00 AM 35.6 °F 27.1 °F 26.6 °F 70% 30.01 in 6.2 mi ENE 12.7 mph - N/A   Mostly Cloudy
6:30 AM 35.6 °F 27.1 °F 26.6 °F 70% 30.01 in 6.2 mi ENE 12.7 mph - N/A   Overcast
7:00 AM 35.6 °F 27.5 °F 24.8 °F 65% 30.01 in 6.2 mi ENE 11.5 mph - N/A   Overcast
7:30 AM 35.6 °F 26.6 °F 24.8 °F 65% 30.01 in 6.2 mi East 13.8 mph - N/A   Mostly Cloudy
8:00 AM 35.6 °F 27.1 °F 26.6 °F 70% 30.01 in 6.2 mi East 12.7 mph - N/A   Mostly Cloudy
8:30 AM 35.6 °F 27.1 °F 24.8 °F 65% 30.01 in 6.2 mi East 12.7 mph - N/A   Mostly Cloudy
9:00 AM 35.6 °F 28.0 °F 26.6 °F 70% 30.01 in 6.2 mi East 10.4 mph - N/A   Mostly Cloudy
9:30 AM 37.4 °F 29.3 °F 24.8 °F 60% 30.01 in 6.2 mi East 12.7 mph - N/A   Mostly Cloudy
10:00 AM 37.4 °F 27.8 °F 24.8 °F 60% 30.01 in 6.2 mi East 17.3 mph - N/A   Mostly Cloudy
10:30 AM 37.4 °F 28.5 °F 24.8 °F 60% 30.01 in 6.2 mi East 15.0 mph - N/A   Mostly Cloudy
11:00 AM 39.2 °F 30.8 °F 24.8 °F 56% 30.01 in 6.2 mi East 15.0 mph - N/A   Mostly Cloudy
11:30 AM 39.2 °F 30.5 °F 24.8 °F 56% 30.01 in 6.2 mi East 16.1 mph - N/A   Mostly Cloudy
12:00 PM 39 °F - 25 °F 44% 30.03 in 16 mi East 15.7 mph - -   Mostly Cloudy
12:00 PM 39.2 °F 30.8 °F 24.8 °F 56% 30.01 in 6.2 mi East 15.0 mph - N/A   Mostly Cloudy
12:30 PM 39.2 °F 31.6 °F 24.8 °F 56% 30.01 in 6.2 mi East 12.7 mph - N/A   Mostly Cloudy
1:00 PM 39.2 °F 30.5 °F 24.8 °F 56% 30.01 in 6.2 mi ENE 16.1 mph - N/A   Mostly Cloudy
1:30 PM 39.2 °F 29.8 °F 24.8 °F 56% 30.01 in 6.2 mi East 18.4 mph - N/A   Mostly Cloudy
2:00 PM 39.2 °F 30.8 °F 23.0 °F 52% 30.01 in 6.2 mi ENE 15.0 mph - N/A   Mostly Cloudy
2:30 PM 39.2 °F 31.2 °F 24.8 °F 56% 30.01 in 6.2 mi East 13.8 mph - N/A   Mostly Cloudy
3:00 PM 39.2 °F 31.6 °F 24.8 °F 56% 30.01 in 6.2 mi East 12.7 mph - N/A   Mostly Cloudy
3:30 PM 39.2 °F 30.8 °F 24.8 °F 56% 30.01 in 6.2 mi ENE 15.0 mph - N/A   Mostly Cloudy
4:00 PM 39.2 °F 31.6 °F 24.8 °F 56% 30.01 in 6.2 mi East 12.7 mph - N/A   Mostly Cloudy
4:30 PM 39.2 °F 31.6 °F 24.8 °F 56% 30.01 in 6.2 mi East 12.7 mph - N/A   Mostly Cloudy
5:00 PM 39.2 °F 31.6 °F 24.8 °F 56% 30.01 in 6.2 mi East 12.7 mph - N/A   Mostly Cloudy
5:30 PM 39.2 °F 32.5 °F 24.8 °F 56% 30.01 in 6.2 mi East 10.4 mph - N/A   Mostly Cloudy
6:00 PM 39 °F - 23 °F 40% 30.03 in 25 mi East 8.9 mph - -   Mostly Cloudy
6:00 PM 39.2 °F 33.6 °F 23.0 °F 52% 30.01 in 6.2 mi East 8.1 mph - N/A   Mostly Cloudy
6:30 PM 39.2 °F 31.6 °F 24.8 °F 56% 30.04 in 6.2 mi ENE 12.7 mph - N/A   Mostly Cloudy
7:00 PM 39.2 °F 32.0 °F 23.0 °F 52% 30.04 in 6.2 mi East 11.5 mph - N/A   Mostly Cloudy
7:30 PM 37.4 °F 29.8 °F 24.8 °F 60% 30.04 in 6.2 mi East 11.5 mph - N/A   Overcast
8:00 PM 37.4 °F 29.8 °F 24.8 °F 60% 30.04 in 6.2 mi ENE 11.5 mph - N/A   Overcast
8:30 PM 37.4 °F 28.5 °F 24.8 °F 60% 30.04 in 6.2 mi ENE 15.0 mph - N/A   Overcast
9:00 PM 37.4 °F 28.9 °F 24.8 °F 60% 30.04 in 6.2 mi ENE 13.8 mph - N/A   Overcast
9:30 PM 37.4 °F 29.8 °F 24.8 °F 60% 30.04 in 6.2 mi ENE 11.5 mph - N/A   Overcast
10:00 PM 37.4 °F 29.8 °F 24.8 °F 60% 30.04 in 6.2 mi ENE 11.5 mph - N/A   Overcast
10:30 PM 37.4 °F 29.8 °F 24.8 °F 60% 30.04 in 6.2 mi ENE 11.5 mph - N/A   Mostly Cloudy
11:00 PM 37.4 °F 29.3 °F 24.8 °F 60% 30.04 in 6.2 mi ENE 12.7 mph - N/A   Overcast
11:30 PM 35.6 °F 28.0 °F 24.8 °F 65% 30.04 in 6.2 mi ENE 10.4 mph - N/A   Overcast